Date,TemperatureHighF,TemperatureAvgF,TemperatureLowF,DewpointHighF,DewpointAvgF,DewpointLowF,HumidityHigh,HumidityAvg,HumidityLow,PressureMaxIn,PressureMinIn,WindSpeedMaxMPH,WindSpeedAvgMPH,GustSpeedMaxMPH,PrecipitationSumIn
2013-3-1,28.0,25.7,24.0,21.0,19.4,16.0,84,77,66,30.23,30.08,15,9,22,0.00
2013-3-2,36.0,27.1,19.0,25.0,19.6,14.0,84,73,55,30.23,29.96,9,4,14,0.00
2013-3-3,40.0,32.4,26.0,32.0,26.6,22.0,87,79,70,29.97,29.58,21,11,28,0.00
2013-3-4,42.0,35.1,29.0,32.0,28.5,25.0,86,77,66,29.88,29.51,16,8,25,0.00
2013-3-5,34.0,28.0,24.0,26.0,19.4,16.0,76,70,61,30.26,29.86,30,17,43,0.00
2013-3-6,38.0,28.1,21.0,25.0,20.2,16.0,84,73,56,30.30,30.11,12,6,21,0.00
2013-3-7,50.0,33.9,23.0,33.0,25.8,19.0,86,73,49,30.14,29.95,19,12,31,0.00
2013-3-8,55.0,40.9,29.0,40.0,33.0,25.0,87,74,56,30.03,29.72,17,11,24,0.06
2013-3-9,54.0,46.4,36.0,51.0,43.4,34.0,93,89,85,29.74,29.36,20,9,34,0.11
2013-3-10,36.0,28.4,23.0,34.0,26.3,21.0,94,92,89,29.80,29.51,23,15,37,0.06
2013-3-11,30.0,23.8,20.0,22.0,18.1,14.0,90,79,62,29.88,29.75,19,9,28,0.01
2013-3-12,33.0,28.0,21.0,25.0,21.5,15.0,91,77,67,30.20,29.88,20,10,33,0.00
2013-3-13,36.0,26.8,14.0,25.0,19.5,11.0,91,74,56,30.32,30.11,10,3,14,0.00
2013-3-14,56.0,41.5,31.0,43.0,32.8,23.0,85,72,58,30.12,29.90,11,4,15,0.00
2013-3-15,61.0,46.7,36.0,47.0,39.2,33.0,92,77,55,29.91,29.53,9,4,16,0.00
2013-3-16,40.0,33.0,29.0,37.0,27.8,24.0,91,81,70,30.03,29.66,17,9,27,0.00
2013-3-17,45.0,33.2,24.0,34.0,26.1,20.0,89,75,60,30.01,29.60,16,10,24,0.00
2013-3-18,37.0,33.6,27.0,33.0,23.9,16.0,94,70,44,29.90,29.58,29,11,42,0.06
2013-3-19,50.0,33.3,21.0,29.0,20.1,14.0,80,60,32,30.18,29.90,21,4,30,0.01
2013-3-20,34.0,24.6,16.0,18.0,10.6,5.0,76,56,37,30.27,29.98,15,8,26,0.00
2013-3-21,32.0,26.2,20.0,19.0,14.6,12.0,76,62,44,29.98,29.78,13,7,17,0.00
2013-3-22,34.0,30.7,26.0,22.0,19.8,17.0,76,64,52,29.88,29.82,9,5,12,0.00
2013-3-23,36.0,31.6,28.0,30.0,25.3,21.0,93,78,61,29.96,29.87,11,5,17,0.00
2013-3-24,29.0,26.5,25.0,26.0,21.9,20.0,92,83,73,29.95,29.88,21,12,31,0.00
2013-3-25,30.0,26.6,24.0,24.0,21.8,19.0,90,82,70,30.22,29.95,17,12,27,0.00
2013-3-26,40.0,27.2,16.0,25.0,19.2,13.0,87,73,51,30.26,30.10,6,2,13,0.00
2013-3-27,52.0,36.9,24.0,33.0,26.8,20.0,85,68,46,30.14,30.02,14,9,22,0.00
2013-3-28,59.0,42.7,26.0,36.0,30.8,24.0,92,66,35,30.10,29.97,9,3,18,0.00
2013-3-29,69.0,50.6,31.0,41.0,34.1,28.0,90,58,27,30.05,29.85,16,7,24,0.00
2013-3-30,66.0,55.9,48.0,54.0,43.2,-99.9,93,68,33,29.90,29.69,25,7,36,0.40
2013-3-31,57.0,47.6,34.0,43.0,34.3,26.0,93,65,31,29.95,29.75,20,7,30,0.02